Time,TemperatureF,DewpointF,PressureIn,WindDirection,WindDirectionDegrees,WindSpeedMPH,WindSpeedGustMPH,Humidity,HourlyPrecipIn,Conditions,Clouds,dailyrainin,SoftwareType,DateUTC
2013-04-22 00:01:00,43.0,36.6,0.00,South,190,5.4,6.3,78,0.00,,,0.00,VWS V13.01,2013-04-22 05:01:00,
2013-04-22 00:06:00,43.0,36.9,0.00,SSW,193,2.2,6.3,79,0.00,,,0.00,VWS V13.01,2013-04-22 05:06:00,
2013-04-22 00:11:00,43.0,36.9,0.00,SSW,192,8.1,8.1,79,0.00,,,0.00,VWS V13.01,2013-04-22 05:11:00,
2013-04-22 00:16:00,43.0,36.9,0.00,SSW,195,4.9,5.4,79,0.00,,,0.00,VWS V13.01,2013-04-22 05:16:00,
2013-04-22 00:21:00,43.0,36.9,0.00,South,179,5.4,6.3,79,0.00,,,0.00,VWS V13.01,2013-04-22 05:21:00,
2013-04-22 00:26:00,43.0,36.9,0.00,South,189,0.0,0.0,79,0.00,,,0.00,VWS V13.01,2013-04-22 05:26:00,
2013-04-22 00:31:00,43.0,36.9,0.00,SSW,204,0.0,4.9,79,0.00,,,0.00,VWS V13.01,2013-04-22 05:31:00,
2013-04-22 00:36:00,43.2,37.4,0.00,South,189,3.6,3.6,80,0.00,,,0.00,VWS V13.01,2013-04-22 05:36:00,
2013-04-22 00:41:00,43.2,37.4,0.00,SSW,196,2.2,3.6,80,0.00,,,0.00,VWS V13.01,2013-04-22 05:41:00,
2013-04-22 00:46:00,43.2,37.4,0.00,South,190,5.4,5.8,80,0.00,,,0.00,VWS V13.01,2013-04-22 05:46:00,
2013-04-22 00:51:00,43.0,37.2,0.00,South,187,3.1,7.6,80,0.00,,,0.00,VWS V13.01,2013-04-22 05:51:00,
2013-04-22 00:56:00,42.8,37.1,0.00,SW,224,0.0,0.0,80,0.00,,,0.00,VWS V13.01,2013-04-22 05:56:00,
2013-04-22 01:01:00,42.8,37.1,0.00,South,186,0.0,0.0,80,0.00,,,0.00,VWS V13.01,2013-04-22 06:01:00,
2013-04-22 01:06:00,42.6,36.9,0.00,South,178,0.0,0.0,80,0.00,,,0.00,VWS V13.01,2013-04-22 06:06:00,
2013-04-22 01:11:00,42.6,36.9,0.00,South,189,0.0,0.0,80,0.00,,,0.00,VWS V13.01,2013-04-22 06:11:00,
2013-04-22 01:16:00,42.4,36.7,0.00,South,190,0.0,0.0,80,0.00,,,0.00,VWS V13.01,2013-04-22 06:16:00,
2013-04-22 01:21:00,42.6,36.9,0.00,South,182,0.0,0.0,80,0.00,,,0.00,VWS V13.01,2013-04-22 06:21:00,
2013-04-22 01:26:00,42.6,36.9,0.00,SSW,206,0.0,0.0,80,0.00,,,0.00,VWS V13.01,2013-04-22 06:26:00,
2013-04-22 01:31:00,42.6,36.9,0.00,SSW,206,0.0,0.0,80,0.00,,,0.00,VWS V13.01,2013-04-22 06:31:00,
2013-04-22 01:36:00,42.4,36.4,0.00,SSW,206,0.0,0.0,79,0.00,,,0.00,VWS V13.01,2013-04-22 06:36:00,
2013-04-22 01:41:00,42.4,36.7,0.00,SSW,206,0.0,0.0,80,0.00,,,0.00,VWS V13.01,2013-04-22 06:41:00,
2013-04-22 01:46:00,42.4,36.4,0.00,SSW,206,0.0,0.0,79,0.00,,,0.00,VWS V13.01,2013-04-22 06:46:00,
2013-04-22 01:51:00,42.4,36.4,0.00,SSW,206,0.0,0.0,79,0.00,,,0.00,VWS V13.01,2013-04-22 06:51:00,
2013-04-22 01:56:00,42.6,36.6,0.00,SSW,206,0.0,0.0,79,0.00,,,0.00,VWS V13.01,2013-04-22 06:56:00,
2013-04-22 02:01:00,42.6,36.6,0.00,SSW,206,0.0,0.0,79,0.00,,,0.00,VWS V13.01,2013-04-22 07:01:00,
2013-04-22 02:06:00,42.6,36.6,0.00,SSW,206,0.0,0.0,79,0.00,,,0.00,VWS V13.01,2013-04-22 07:06:00,
2013-04-22 02:11:00,42.4,36.4,0.00,SSW,206,0.0,0.0,79,0.00,,,0.00,VWS V13.01,2013-04-22 07:11:00,
2013-04-22 02:16:00,42.8,36.8,0.00,SSW,206,0.0,0.0,79,0.00,,,0.00,VWS V13.01,2013-04-22 07:16:00,
2013-04-22 02:21:00,42.6,36.6,0.00,SSW,206,0.0,0.0,79,0.00,,,0.00,VWS V13.01,2013-04-22 07:21:00,
2013-04-22 02:27:00,42.4,36.4,0.00,SSW,206,0.0,0.0,79,0.00,,,0.00,VWS V13.01,2013-04-22 07:27:00,
2013-04-22 02:32:00,42.4,36.4,0.00,SW,219,0.0,0.0,79,0.00,,,0.00,VWS V13.01,2013-04-22 07:32:00,
2013-04-22 02:37:00,42.4,36.4,0.00,SW,224,0.0,0.0,79,0.00,,,0.00,VWS V13.01,2013-04-22 07:37:00,
2013-04-22 02:42:00,42.3,35.9,0.00,SW,224,0.0,0.0,78,0.00,,,0.00,VWS V13.01,2013-04-22 07:42:00,
2013-04-22 02:47:00,42.3,35.9,0.00,SW,224,0.0,0.0,78,0.00,,,0.00,VWS V13.01,2013-04-22 07:47:00,
2013-04-22 02:52:00,41.9,35.5,0.00,SW,224,0.0,0.0,78,0.00,,,0.00,VWS V13.01,2013-04-22 07:52:00,
2013-04-22 02:57:00,41.7,35.4,0.00,SW,224,0.0,0.0,78,0.00,,,0.00,VWS V13.01,2013-04-22 07:57:00,
2013-04-22 03:02:00,41.5,35.2,0.00,SW,224,0.0,0.0,78,0.00,,,0.00,VWS V13.01,2013-04-22 08:02:00,
2013-04-22 03:07:00,41.2,34.8,0.00,WNW,300,0.0,0.0,78,0.00,,,0.00,VWS V13.01,2013-04-22 08:07:00,
2013-04-22 03:12:00,41.0,34.7,0.00,WNW,301,0.0,0.0,78,0.00,,,0.00,VWS V13.01,2013-04-22 08:12:00,
2013-04-22 03:17:00,40.6,34.3,0.00,WNW,301,0.0,0.0,78,0.00,,,0.00,VWS V13.01,2013-04-22 08:17:00,
2013-04-22 03:22:00,40.6,34.3,0.00,WNW,301,0.0,0.0,78,0.00,,,0.00,VWS V13.01,2013-04-22 08:22:00,
2013-04-22 03:27:00,40.5,34.2,0.00,WNW,301,0.0,0.0,78,0.00,,,0.00,VWS V13.01,2013-04-22 08:27:00,
2013-04-22 03:32:00,40.3,34.0,0.00,WNW,301,0.0,0.0,78,0.00,,,0.00,VWS V13.01,2013-04-22 08:32:00,
2013-04-22 03:37:00,40.1,33.8,0.00,WNW,301,0.0,0.0,78,0.00,,,0.00,VWS V13.01,2013-04-22 08:37:00,
2013-04-22 03:42:00,39.9,33.6,0.00,WNW,301,0.0,0.0,78,0.00,,,0.00,VWS V13.01,2013-04-22 08:42:00,
2013-04-22 03:47:00,39.9,33.6,0.00,WNW,301,0.0,0.0,78,0.00,,,0.00,VWS V13.01,2013-04-22 08:47:00,
2013-04-22 03:52:00,39.7,33.5,0.00,WNW,301,0.0,0.0,78,0.00,,,0.00,VWS V13.01,2013-04-22 08:52:00,
2013-04-22 03:57:00,39.6,33.3,0.00,WNW,301,0.0,0.0,78,0.00,,,0.00,VWS V13.01,2013-04-22 08:57:00,
2013-04-22 04:02:00,39.4,33.1,0.00,WNW,301,0.0,0.0,78,0.00,,,0.00,VWS V13.01,2013-04-22 09:02:00,
2013-04-22 04:07:00,39.4,33.1,0.00,WNW,301,0.0,0.0,78,0.00,,,0.00,VWS V13.01,2013-04-22 09:07:00,
2013-04-22 04:12:00,39.2,32.9,0.00,WNW,301,0.0,0.0,78,0.00,,,0.00,VWS V13.01,2013-04-22 09:12:00,
2013-04-22 04:17:00,39.2,32.9,0.00,WNW,301,0.0,0.0,78,0.00,,,0.00,VWS V13.01,2013-04-22 09:17:00,
2013-04-22 04:22:00,39.0,32.8,0.00,WNW,301,0.0,0.0,78,0.00,,,0.00,VWS V13.01,2013-04-22 09:22:00,
2013-04-22 04:27:00,38.8,32.6,0.00,WNW,301,0.0,0.0,78,0.00,,,0.00,VWS V13.01,2013-04-22 09:27:00,
2013-04-22 04:32:00,38.7,32.4,0.00,WNW,301,0.0,0.0,78,0.00,,,0.00,VWS V13.01,2013-04-22 09:32:00,
2013-04-22 04:37:00,38.7,32.4,0.00,WNW,301,0.0,0.0,78,0.00,,,0.00,VWS V13.01,2013-04-22 09:37:00,
2013-04-22 04:42:00,38.5,32.2,0.00,WNW,301,0.0,0.0,78,0.00,,,0.00,VWS V13.01,2013-04-22 09:42:00,
2013-04-22 04:47:00,38.5,32.2,0.00,NW,320,0.0,0.0,78,0.00,,,0.00,VWS V13.01,2013-04-22 09:47:00,
2013-04-22 04:52:00,38.5,32.2,0.00,NW,318,0.0,0.0,78,0.00,,,0.00,VWS V13.01,2013-04-22 09:52:00,
2013-04-22 04:57:00,38.5,32.2,0.00,NW,319,0.0,0.0,78,0.00,,,0.00,VWS V13.01,2013-04-22 09:57:00,
2013-04-22 05:02:00,38.5,32.2,0.00,NW,319,0.0,0.0,78,0.00,,,0.00,VWS V13.01,2013-04-22 10:02:00,
2013-04-22 05:07:00,38.5,32.2,0.00,NW,319,0.0,0.0,78,0.00,,,0.00,VWS V13.01,2013-04-22 10:07:00,
2013-04-22 05:12:00,38.3,32.0,0.00,NW,319,0.0,0.0,78,0.00,,,0.00,VWS V13.01,2013-04-22 10:12:00,
2013-04-22 05:17:00,38.1,31.9,0.00,NNW,332,0.0,0.0,78,0.00,,,0.00,VWS V13.01,2013-04-22 10:17:00,
2013-04-22 05:22:00,38.1,31.9,0.00,NNW,333,0.0,0.0,78,0.00,,,0.00,VWS V13.01,2013-04-22 10:22:00,
2013-04-22 05:27:00,38.1,31.9,0.00,NW,308,0.0,0.0,78,0.00,,,0.00,VWS V13.01,2013-04-22 10:27:00,
2013-04-22 05:32:00,37.9,31.7,0.00,NW,320,0.0,0.0,78,0.00,,,0.00,VWS V13.01,2013-04-22 10:32:00,
2013-04-22 05:37:00,37.9,31.7,0.00,NW,307,0.0,0.0,78,0.00,,,0.00,VWS V13.01,2013-04-22 10:37:00,
2013-04-22 05:42:00,37.9,31.7,0.00,NW,324,0.0,0.0,78,0.00,,,0.00,VWS V13.01,2013-04-22 10:42:00,
2013-04-22 05:47:00,37.8,31.5,0.00,NW,325,0.0,0.0,78,0.00,,,0.00,VWS V13.01,2013-04-22 10:47:00,
2013-04-22 05:52:00,37.8,31.5,0.00,NNW,327,2.7,2.7,78,0.00,,,0.00,VWS V13.01,2013-04-22 10:52:00,
2013-04-22 05:57:00,37.6,31.4,0.00,NW,317,0.0,0.0,78,0.00,,,0.00,VWS V13.01,2013-04-22 10:57:00,
2013-04-22 06:02:00,37.6,31.7,0.00,NNW,346,3.6,3.6,79,0.00,,,0.00,VWS V13.01,2013-04-22 11:02:00,
2013-04-22 06:07:00,37.6,31.7,0.00,NNW,332,0.0,0.0,79,0.00,,,0.00,VWS V13.01,2013-04-22 11:07:00,
2013-04-22 06:12:00,37.4,31.5,0.00,NW,319,0.0,0.0,79,0.00,,,0.00,VWS V13.01,2013-04-22 11:12:00,
2013-04-22 06:17:00,37.4,31.5,0.00,NW,316,2.2,3.1,79,0.00,,,0.00,VWS V13.01,2013-04-22 11:17:00,
2013-04-22 06:22:00,37.4,31.5,0.00,NNW,338,3.1,3.1,79,0.00,,,0.00,VWS V13.01,2013-04-22 11:22:00,
2013-04-22 06:27:00,37.4,31.5,0.00,NW,313,3.1,3.1,79,0.00,,,0.00,VWS V13.01,2013-04-22 11:27:00,
2013-04-22 06:32:00,37.4,31.5,0.00,NNW,333,2.2,2.7,79,0.00,,,0.00,VWS V13.01,2013-04-22 11:32:00,
2013-04-22 06:37:00,37.2,31.6,0.00,NNW,334,4.0,4.0,80,0.00,,,0.00,VWS V13.01,2013-04-22 11:37:00,
2013-04-22 06:42:00,37.2,31.6,0.00,North,0,0.0,0.0,80,0.00,,,0.00,VWS V13.01,2013-04-22 11:42:00,
2013-04-22 06:47:00,37.2,31.6,0.00,West,274,0.0,0.0,80,0.00,,,0.00,VWS V13.01,2013-04-22 11:47:00,
2013-04-22 06:52:00,37.0,31.5,0.00,NW,310,0.0,0.0,80,0.00,,,0.00,VWS V13.01,2013-04-22 11:52:00,
2013-04-22 06:57:00,37.0,31.5,0.00,NNW,332,0.0,0.0,80,0.00,,,0.00,VWS V13.01,2013-04-22 11:57:00,
2013-04-22 07:02:00,37.0,31.5,0.00,NNW,332,0.0,0.0,80,0.00,,,0.00,VWS V13.01,2013-04-22 12:02:00,
2013-04-22 07:07:00,37.0,31.5,0.00,NW,325,0.0,0.0,80,0.00,,,0.00,VWS V13.01,2013-04-22 12:07:00,
2013-04-22 07:12:00,37.0,31.5,0.00,NW,325,0.0,0.0,80,0.00,,,0.00,VWS V13.01,2013-04-22 12:12:00,
2013-04-22 07:17:00,37.0,31.5,0.00,NW,325,0.0,0.0,80,0.00,,,0.00,VWS V13.01,2013-04-22 12:17:00,
2013-04-22 07:22:00,37.0,31.5,0.00,NNW,331,3.1,3.1,80,0.00,,,0.00,VWS V13.01,2013-04-22 12:22:00,
2013-04-22 07:27:00,37.0,31.5,0.00,NW,324,5.8,5.8,80,0.00,,,0.00,VWS V13.01,2013-04-22 12:27:00,
2013-04-22 07:32:00,37.0,31.5,0.00,NNW,343,3.6,3.6,80,0.00,,,0.00,VWS V13.01,2013-04-22 12:32:00,
2013-04-22 07:37:00,37.0,31.5,0.00,NW,318,2.2,3.6,80,0.00,,,0.00,VWS V13.01,2013-04-22 12:37:00,
2013-04-22 07:42:00,37.0,31.5,0.00,NNW,340,6.3,6.3,80,0.00,,,0.00,VWS V13.01,2013-04-22 12:42:00,
2013-04-22 07:47:00,36.9,31.3,0.00,NNW,328,4.0,4.9,80,0.00,,,0.00,VWS V13.01,2013-04-22 12:47:00,
2013-04-22 07:52:00,36.9,31.3,0.00,North,353,3.1,4.9,80,0.00,,,0.00,VWS V13.01,2013-04-22 12:52:00,
2013-04-22 07:57:00,36.9,31.3,0.00,North,350,5.4,5.8,80,0.00,,,0.00,VWS V13.01,2013-04-22 12:57:00,
2013-04-22 08:02:00,36.7,31.4,0.00,NNW,338,3.6,3.6,81,0.00,,,0.00,VWS V13.01,2013-04-22 13:02:00,
2013-04-22 08:07:00,36.7,31.4,0.00,North,350,0.0,0.0,81,0.00,,,0.00,VWS V13.01,2013-04-22 13:07:00,
2013-04-22 08:12:00,36.7,31.4,0.00,NNW,327,6.3,6.3,81,0.00,,,0.00,VWS V13.01,2013-04-22 13:12:00,
2013-04-22 08:17:00,36.7,31.4,0.00,WNW,302,3.1,4.0,81,0.00,,,0.00,VWS V13.01,2013-04-22 13:17:00,
2013-04-22 08:22:00,36.9,31.6,0.00,NNE,25,0.0,0.0,81,0.00,,,0.00,VWS V13.01,2013-04-22 13:22:00,
2013-04-22 08:27:00,36.9,31.6,0.00,NNW,346,2.7,3.1,81,0.00,,,0.00,VWS V13.01,2013-04-22 13:27:00,
2013-04-22 08:32:00,36.9,31.6,0.00,NNW,341,3.1,5.8,81,0.00,,,0.00,VWS V13.01,2013-04-22 13:32:00,
2013-04-22 08:37:00,36.9,31.6,0.00,NNW,348,0.0,3.6,81,0.00,,,0.00,VWS V13.01,2013-04-22 13:37:00,
2013-04-22 08:42:00,36.9,31.6,0.00,NW,319,2.7,2.7,81,0.00,,,0.00,VWS V13.01,2013-04-22 13:42:00,
2013-04-22 08:47:00,36.9,31.6,0.00,NNW,345,3.6,3.6,81,0.00,,,0.00,VWS V13.01,2013-04-22 13:47:00,
2013-04-22 08:52:00,36.9,31.6,0.00,NW,310,2.2,2.2,81,0.00,,,0.00,VWS V13.01,2013-04-22 13:52:00,
2013-04-22 08:57:00,36.9,31.6,0.00,NE,46,2.7,3.1,81,0.00,,,0.00,VWS V13.01,2013-04-22 13:57:00,
2013-04-22 09:02:00,36.7,31.4,0.00,North,0,5.4,5.4,81,0.00,,,0.00,VWS V13.01,2013-04-22 14:02:00,
2013-04-22 09:07:00,36.5,31.2,0.00,North,0,3.1,4.0,81,0.00,,,0.00,VWS V13.01,2013-04-22 14:07:00,
2013-04-22 09:12:00,36.3,30.8,0.00,North,357,0.0,0.0,80,0.00,,,0.00,VWS V13.01,2013-04-22 14:12:00,
2013-04-22 09:17:00,36.3,31.1,0.00,East,99,0.0,0.0,81,0.00,,,0.00,VWS V13.01,2013-04-22 14:17:00,
2013-04-22 09:22:00,36.7,31.4,0.00,ENE,64,0.0,2.2,81,0.00,,,0.00,VWS V13.01,2013-04-22 14:22:00,
2013-04-22 09:27:00,36.7,31.4,0.00,ESE,106,2.7,3.6,81,0.00,,,0.00,VWS V13.01,2013-04-22 14:27:00,
2013-04-22 09:32:00,36.9,31.6,0.00,North,3,0.0,0.0,81,0.00,,,0.00,VWS V13.01,2013-04-22 14:32:00,
2013-04-22 09:37:00,37.0,31.8,0.00,North,0,5.8,5.8,81,0.00,,,0.00,VWS V13.01,2013-04-22 14:37:00,
2013-04-22 09:42:00,36.9,31.0,0.00,NNE,22,2.7,2.7,79,0.00,,,0.00,VWS V13.01,2013-04-22 14:42:00,
2013-04-22 09:47:00,37.0,31.1,0.00,ENE,66,0.0,0.0,79,0.00,,,0.00,VWS V13.01,2013-04-22 14:47:00,
2013-04-22 09:52:00,37.0,30.8,0.00,West,262,3.1,3.1,78,0.00,,,0.00,VWS V13.01,2013-04-22 14:52:00,
2013-04-22 09:57:00,37.0,30.5,0.00,NE,45,3.1,3.1,77,0.00,,,0.00,VWS V13.01,2013-04-22 14:57:00,
2013-04-22 10:02:00,37.2,30.0,0.00,NE,35,3.1,4.9,75,0.00,,,0.00,VWS V13.01,2013-04-22 15:02:00,
2013-04-22 10:07:00,37.4,29.9,0.00,NW,310,3.1,3.1,74,0.00,,,0.00,VWS V13.01,2013-04-22 15:07:00,
2013-04-22 10:12:00,37.4,28.9,0.00,East,84,6.3,6.3,71,0.00,,,0.00,VWS V13.01,2013-04-22 15:12:00,
2013-04-22 10:17:00,37.8,27.8,0.00,NW,307,5.4,5.4,67,0.00,,,0.00,VWS V13.01,2013-04-22 15:17:00,
2013-04-22 10:22:00,38.1,28.1,0.00,NE,54,0.0,0.0,67,0.00,,,0.00,VWS V13.01,2013-04-22 15:22:00,
2013-04-22 10:27:00,38.5,28.5,0.00,NE,50,3.1,3.1,67,0.00,,,0.00,VWS V13.01,2013-04-22 15:27:00,
2013-04-22 10:32:00,38.7,28.7,0.00,ENE,57,4.0,4.0,67,0.00,,,0.00,VWS V13.01,2013-04-22 15:32:00,
2013-04-22 10:37:00,38.3,27.2,0.00,NE,38,3.1,3.1,64,0.00,,,0.00,VWS V13.01,2013-04-22 15:37:00,
2013-04-22 10:42:00,38.1,25.9,0.00,North,353,0.0,3.6,61,0.00,,,0.00,VWS V13.01,2013-04-22 15:42:00,
2013-04-22 10:47:00,38.1,25.1,0.00,North,0,6.3,6.3,59,0.00,,,0.00,VWS V13.01,2013-04-22 15:47:00,
2013-04-22 10:52:00,38.1,23.8,0.00,NNE,14,4.0,4.0,56,0.00,,,0.00,VWS V13.01,2013-04-22 15:52:00,
2013-04-22 10:57:00,38.1,23.4,0.00,NW,317,6.3,6.3,55,0.00,,,0.00,VWS V13.01,2013-04-22 15:57:00,
2013-04-22 11:02:00,38.1,23.4,0.00,WNW,294,2.7,3.1,55,0.00,,,0.00,VWS V13.01,2013-04-22 16:02:00,
2013-04-22 11:07:00,38.1,22.5,0.00,NNW,340,4.0,4.0,53,0.00,,,0.00,VWS V13.01,2013-04-22 16:07:00,
2013-04-22 11:12:00,37.9,22.4,0.00,NW,320,0.0,0.0,53,0.00,,,0.00,VWS V13.01,2013-04-22 16:12:00,
2013-04-22 11:17:00,37.9,22.4,0.00,North,353,3.1,5.8,53,0.00,,,0.00,VWS V13.01,2013-04-22 16:17:00,
2013-04-22 11:22:00,38.1,23.0,0.00,ENE,58,0.0,0.0,54,0.00,,,0.00,VWS V13.01,2013-04-22 16:22:00,
2013-04-22 11:27:00,38.3,23.1,0.00,NNW,345,4.0,4.0,54,0.00,,,0.00,VWS V13.01,2013-04-22 16:27:00,
2013-04-22 11:32:00,38.1,22.1,0.00,North,3,3.1,3.1,52,0.00,,,0.00,VWS V13.01,2013-04-22 16:32:00,
2013-04-22 11:37:00,38.1,22.1,0.00,North,353,4.0,4.9,52,0.00,,,0.00,VWS V13.01,2013-04-22 16:37:00,
2013-04-22 11:42:00,37.9,21.9,0.00,North,8,4.0,4.9,52,0.00,,,0.00,VWS V13.01,2013-04-22 16:42:00,
2013-04-22 11:47:00,37.9,21.9,0.00,NNW,327,5.8,5.8,52,0.00,,,0.00,VWS V13.01,2013-04-22 16:47:00,
2013-04-22 11:52:00,37.8,21.3,0.00,NW,323,3.1,3.1,51,0.00,,,0.00,VWS V13.01,2013-04-22 16:52:00,
2013-04-22 11:57:00,37.9,21.9,0.00,NNE,32,0.0,0.0,52,0.00,,,0.00,VWS V13.01,2013-04-22 16:57:00,
2013-04-22 12:02:00,37.9,21.4,0.00,NNW,337,2.7,2.7,51,0.00,,,0.00,VWS V13.01,2013-04-22 17:02:00,
2013-04-22 12:07:00,38.1,21.6,0.00,NW,321,3.6,3.6,51,0.00,,,0.00,VWS V13.01,2013-04-22 17:07:00,
2013-04-22 12:12:00,38.1,22.1,0.00,NNE,23,3.6,3.6,52,0.00,,,0.00,VWS V13.01,2013-04-22 17:12:00,
2013-04-22 12:17:00,38.1,21.6,0.00,North,353,5.4,5.4,51,0.00,,,0.00,VWS V13.01,2013-04-22 17:17:00,
2013-04-22 12:22:00,38.3,21.8,0.00,NW,324,0.0,0.0,51,0.00,,,0.00,VWS V13.01,2013-04-22 17:22:00,
2013-04-22 12:27:00,38.5,21.9,0.00,NNW,346,0.0,3.1,51,0.00,,,0.00,VWS V13.01,2013-04-22 17:27:00,
2013-04-22 12:32:00,38.8,22.3,0.00,NE,36,2.2,2.2,51,0.00,,,0.00,VWS V13.01,2013-04-22 17:32:00,
2013-04-22 12:37:00,39.2,22.6,0.00,NE,44,3.6,3.6,51,0.00,,,0.00,VWS V13.01,2013-04-22 17:37:00,
2013-04-22 12:42:00,39.6,22.5,0.00,NE,41,2.2,3.6,50,0.00,,,0.00,VWS V13.01,2013-04-22 17:42:00,
2013-04-22 12:47:00,39.4,21.3,0.00,NE,41,0.0,4.0,48,0.00,,,0.00,VWS V13.01,2013-04-22 17:47:00,
2013-04-22 12:52:00,39.6,22.0,0.00,NE,38,0.0,0.0,49,0.00,,,0.00,VWS V13.01,2013-04-22 17:52:00,
2013-04-22 12:57:00,39.7,22.2,0.00,North,3,2.7,4.0,49,0.00,,,0.00,VWS V13.01,2013-04-22 17:57:00,
2013-04-22 13:02:00,39.7,22.2,0.00,NNW,348,2.7,4.0,49,0.00,,,0.00,VWS V13.01,2013-04-22 18:02:00,
2013-04-22 13:07:00,39.9,22.3,0.00,NE,51,0.0,3.6,49,0.00,,,0.00,VWS V13.01,2013-04-22 18:07:00,
2013-04-22 13:12:00,40.3,22.7,0.00,ENE,63,0.0,3.6,49,0.00,,,0.00,VWS V13.01,2013-04-22 18:12:00,
2013-04-22 13:17:00,40.5,22.8,0.00,NE,51,0.0,0.0,49,0.00,,,0.00,VWS V13.01,2013-04-22 18:17:00,
2013-04-22 13:22:00,40.5,22.8,0.00,NE,36,0.0,0.0,49,0.00,,,0.00,VWS V13.01,2013-04-22 18:22:00,
2013-04-22 13:27:00,40.5,21.8,0.00,East,100,0.0,0.0,47,0.00,,,0.00,VWS V13.01,2013-04-22 18:27:00,
2013-04-22 13:32:00,40.6,22.0,0.00,NE,54,0.0,4.9,47,0.00,,,0.00,VWS V13.01,2013-04-22 18:32:00,
2013-04-22 13:37:00,41.0,21.8,0.00,North,7,3.6,3.6,46,0.00,,,0.00,VWS V13.01,2013-04-22 18:37:00,
2013-04-22 13:42:00,41.2,22.0,0.00,NE,42,2.2,2.2,46,0.00,,,0.00,VWS V13.01,2013-04-22 18:42:00,
2013-04-22 13:47:00,41.4,21.6,0.00,ENE,57,0.0,3.1,45,0.00,,,0.00,VWS V13.01,2013-04-22 18:47:00,
2013-04-22 13:52:00,41.5,21.3,0.00,ESE,102,3.6,3.6,44,0.00,,,0.00,VWS V13.01,2013-04-22 18:52:00,
2013-04-22 13:57:00,41.5,20.2,0.00,ESE,102,4.0,4.0,42,0.00,,,0.00,VWS V13.01,2013-04-22 18:57:00,
2013-04-22 14:02:00,41.5,20.7,0.00,East,99,3.6,3.6,43,0.00,,,0.00,VWS V13.01,2013-04-22 19:02:00,
2013-04-22 14:07:00,41.5,19.6,0.00,NE,56,3.1,7.6,41,0.00,,,0.00,VWS V13.01,2013-04-22 19:07:00,
2013-04-22 14:12:00,41.2,19.9,0.00,East,94,0.0,4.0,42,0.00,,,0.00,VWS V13.01,2013-04-22 19:12:00,
2013-04-22 14:17:00,41.0,19.7,0.00,NE,45,0.0,0.0,42,0.00,,,0.00,VWS V13.01,2013-04-22 19:17:00,
2013-04-22 14:22:00,41.0,20.2,0.00,NNE,27,2.2,3.1,43,0.00,,,0.00,VWS V13.01,2013-04-22 19:22:00,
2013-04-22 14:27:00,41.2,20.4,0.00,East,98,5.8,5.8,43,0.00,,,0.00,VWS V13.01,2013-04-22 19:27:00,
2013-04-22 14:32:00,41.4,20.6,0.00,ENE,71,2.2,4.9,43,0.00,,,0.00,VWS V13.01,2013-04-22 19:32:00,
2013-04-22 14:37:00,41.5,20.2,0.00,ENE,76,0.0,5.4,42,0.00,,,0.00,VWS V13.01,2013-04-22 19:37:00,
2013-04-22 14:42:00,41.4,20.0,0.00,NE,54,0.0,3.1,42,0.00,,,0.00,VWS V13.01,2013-04-22 19:42:00,
2013-04-22 14:47:00,41.4,20.0,0.00,NNE,16,4.0,6.3,42,0.00,,,0.00,VWS V13.01,2013-04-22 19:47:00,
2013-04-22 14:52:00,41.4,20.0,0.00,East,100,6.3,8.3,42,0.00,,,0.00,VWS V13.01,2013-04-22 19:52:00,
2013-04-22 14:57:00,41.0,19.7,0.00,ENE,68,0.0,5.8,42,0.00,,,0.00,VWS V13.01,2013-04-22 19:57:00,
2013-04-22 15:02:00,41.2,20.4,0.00,East,90,0.0,3.1,43,0.00,,,0.00,VWS V13.01,2013-04-22 20:02:00,
2013-04-22 15:07:00,41.0,19.7,0.00,ESE,104,0.0,3.1,42,0.00,,,0.00,VWS V13.01,2013-04-22 20:07:00,
2013-04-22 15:12:00,40.5,20.3,0.00,East,101,5.4,5.4,44,0.00,,,0.00,VWS V13.01,2013-04-22 20:12:00,
2013-04-22 15:17:00,40.5,20.8,0.00,East,100,0.0,5.4,45,0.00,,,0.00,VWS V13.01,2013-04-22 20:17:00,
2013-04-22 15:22:00,40.6,21.5,0.00,NE,36,0.0,0.0,46,0.00,,,0.00,VWS V13.01,2013-04-22 20:22:00,
2013-04-22 15:27:00,40.8,21.7,0.00,ESE,108,0.0,0.0,46,0.00,,,0.00,VWS V13.01,2013-04-22 20:27:00,
2013-04-22 15:32:00,41.0,21.8,0.00,ESE,123,0.0,3.1,46,0.00,,,0.00,VWS V13.01,2013-04-22 20:32:00,
2013-04-22 15:37:00,41.0,21.8,0.00,ENE,71,0.0,0.0,46,0.00,,,0.00,VWS V13.01,2013-04-22 20:37:00,
2013-04-22 15:42:00,41.0,22.3,0.00,NE,54,0.0,0.0,47,0.00,,,0.00,VWS V13.01,2013-04-22 20:42:00,
2013-04-22 15:47:00,41.0,22.3,0.00,ESE,102,2.7,2.7,47,0.00,,,0.00,VWS V13.01,2013-04-22 20:47:00,
2013-04-22 15:52:00,40.5,21.3,0.00,NNE,21,2.2,3.1,46,0.00,,,0.00,VWS V13.01,2013-04-22 20:52:00,
2013-04-22 15:56:00,40.3,21.7,0.00,East,87,2.7,2.7,47,0.00,,,0.00,VWS V13.01,2013-04-22 20:56:00,
2013-04-22 16:01:00,40.3,22.7,0.00,East,90,0.0,3.6,49,0.00,,,0.00,VWS V13.01,2013-04-22 21:01:00,
2013-04-22 16:07:00,40.1,23.4,0.00,East,98,3.1,4.5,51,0.00,,,0.00,VWS V13.01,2013-04-22 21:07:00,
2013-04-22 16:12:00,39.7,23.6,0.00,SE,133,2.7,4.0,52,0.00,,,0.00,VWS V13.01,2013-04-22 21:12:00,
2013-04-22 16:16:00,39.4,23.2,0.00,ESE,117,0.0,0.0,52,0.00,,,0.00,VWS V13.01,2013-04-22 21:16:00,
2013-04-22 16:22:00,39.0,22.9,0.00,ESE,117,0.0,0.0,52,0.04,,,0.04,VWS V13.01,2013-04-22 21:22:00,
2013-04-22 16:26:00,39.2,23.1,0.00,NNE,15,2.7,2.7,52,0.04,,,0.04,VWS V13.01,2013-04-22 21:26:00,
2013-04-22 16:31:00,39.2,23.5,0.00,NNE,20,0.0,0.0,53,0.04,,,0.04,VWS V13.01,2013-04-22 21:31:00,
2013-04-22 16:37:00,39.2,23.5,0.00,North,353,3.1,3.1,53,0.04,,,0.04,VWS V13.01,2013-04-22 21:37:00,
2013-04-22 16:42:00,39.2,24.0,0.00,NNW,338,3.6,5.4,54,0.04,,,0.04,VWS V13.01,2013-04-22 21:42:00,
2013-04-22 16:47:00,39.0,25.1,0.00,North,357,3.6,3.6,57,0.04,,,0.04,VWS V13.01,2013-04-22 21:47:00,
2013-04-22 16:51:00,38.8,25.8,0.00,NW,310,3.1,4.0,59,0.04,,,0.04,VWS V13.01,2013-04-22 21:51:00,
2013-04-22 16:56:00,38.8,26.2,0.00,NNW,342,2.7,2.7,60,0.08,,,0.08,VWS V13.01,2013-04-22 21:56:00,
2013-04-22 17:02:00,38.7,26.8,0.00,NW,310,3.1,5.8,62,0.08,,,0.08,VWS V13.01,2013-04-22 22:02:00,
2013-04-22 17:07:00,38.1,26.6,0.00,NW,324,3.1,7.2,63,0.08,,,0.08,VWS V13.01,2013-04-22 22:07:00,
2013-04-22 17:12:00,37.9,26.9,0.00,North,353,3.6,3.6,64,0.08,,,0.08,VWS V13.01,2013-04-22 22:12:00,
2013-04-22 17:17:00,37.8,27.1,0.00,NNE,14,4.0,6.3,65,0.12,,,0.12,VWS V13.01,2013-04-22 22:17:00,
2013-04-22 17:22:00,37.6,26.9,0.00,NW,312,3.1,5.4,65,0.08,,,0.12,VWS V13.01,2013-04-22 22:22:00,
2013-04-22 17:27:00,37.6,26.9,0.00,NW,324,4.0,4.0,65,0.08,,,0.12,VWS V13.01,2013-04-22 22:27:00,
2013-04-22 17:32:00,37.4,26.7,0.00,NNW,333,4.0,4.0,65,0.08,,,0.12,VWS V13.01,2013-04-22 22:32:00,
2013-04-22 17:36:00,37.4,27.1,0.00,NNW,342,4.9,6.3,66,0.16,,,0.20,VWS V13.01,2013-04-22 22:36:00,
2013-04-22 17:42:00,37.2,26.9,0.00,North,10,2.7,3.6,66,0.16,,,0.20,VWS V13.01,2013-04-22 22:42:00,
2013-04-22 17:47:00,37.0,26.8,0.00,NW,312,5.4,5.4,66,0.16,,,0.20,VWS V13.01,2013-04-22 22:47:00,
2013-04-22 17:52:00,36.9,26.9,0.00,NNE,24,4.0,4.0,67,0.16,,,0.20,VWS V13.01,2013-04-22 22:52:00,
2013-04-22 17:57:00,36.9,26.9,0.00,NE,45,2.7,5.4,67,0.12,,,0.20,VWS V13.01,2013-04-22 22:57:00,
2013-04-22 18:02:00,36.7,27.1,0.00,NNW,329,6.3,6.3,68,0.12,,,0.20,VWS V13.01,2013-04-22 23:02:00,
2013-04-22 18:07:00,36.7,27.1,0.00,NW,315,3.1,4.9,68,0.16,,,0.24,VWS V13.01,2013-04-22 23:07:00,
2013-04-22 18:11:00,36.7,27.1,0.00,North,353,2.7,3.6,68,0.16,,,0.24,VWS V13.01,2013-04-22 23:11:00,
2013-04-22 18:17:00,36.5,27.0,0.00,NNE,29,3.1,5.8,68,0.12,,,0.24,VWS V13.01,2013-04-22 23:17:00,
2013-04-22 18:22:00,36.5,27.0,0.00,NE,46,0.0,0.0,68,0.12,,,0.24,VWS V13.01,2013-04-22 23:22:00,
2013-04-22 18:27:00,36.3,26.8,0.00,NNE,23,3.6,6.3,68,0.12,,,0.24,VWS V13.01,2013-04-22 23:27:00,
2013-04-22 18:32:00,36.1,27.0,0.00,SE,144,3.1,3.1,69,0.12,,,0.28,VWS V13.01,2013-04-22 23:32:00,
2013-04-22 18:37:00,36.0,26.8,0.00,NNE,23,4.9,8.3,69,0.08,,,0.28,VWS V13.01,2013-04-22 23:37:00,
2013-04-22 18:41:00,35.1,25.6,0.00,NW,313,3.1,4.0,68,0.08,,,0.28,VWS V13.01,2013-04-22 23:41:00,
2013-04-22 18:46:00,34.3,24.9,0.00,North,0,3.6,4.0,68,0.08,,,0.28,VWS V13.01,2013-04-22 23:46:00,
2013-04-22 18:51:00,34.0,24.5,0.00,NW,304,3.1,5.4,68,0.08,,,0.28,VWS V13.01,2013-04-22 23:51:00,
2013-04-22 18:56:00,33.6,24.5,0.00,NNW,343,4.9,4.9,69,0.08,,,0.28,VWS V13.01,2013-04-22 23:56:00,
2013-04-22 19:01:00,33.4,24.7,0.00,North,353,3.6,6.3,70,0.08,,,0.28,VWS V13.01,2013-04-23 00:01:00,
2013-04-22 19:06:00,33.3,24.9,0.00,NE,51,0.0,3.1,71,0.04,,,0.28,VWS V13.01,2013-04-23 00:06:00,
2013-04-22 19:12:00,33.1,24.7,0.00,NE,38,2.7,4.9,71,0.04,,,0.28,VWS V13.01,2013-04-23 00:12:00,
2013-04-22 19:17:00,33.1,25.0,0.00,NNW,328,3.1,3.1,72,0.04,,,0.28,VWS V13.01,2013-04-23 00:17:00,
2013-04-22 19:22:00,33.1,25.4,0.00,NNW,344,2.7,8.3,73,0.04,,,0.28,VWS V13.01,2013-04-23 00:22:00,
2013-04-22 19:27:00,32.9,25.5,0.00,NNE,28,3.1,4.9,74,0.04,,,0.28,VWS V13.01,2013-04-23 00:27:00,
2013-04-22 19:32:00,32.9,25.5,0.00,NE,38,3.6,5.4,74,0.04,,,0.28,VWS V13.01,2013-04-23 00:32:00,
2013-04-22 19:37:00,32.7,25.7,0.00,NNW,333,4.0,6.3,75,0.00,,,0.28,VWS V13.01,2013-04-23 00:37:00,
2013-04-22 19:42:00,32.7,25.7,0.00,NNE,24,3.1,5.8,75,0.00,,,0.28,VWS V13.01,2013-04-23 00:42:00,
2013-04-22 19:47:00,32.7,26.0,0.00,NNE,13,3.1,5.4,76,0.00,,,0.28,VWS V13.01,2013-04-23 00:47:00,
2013-04-22 19:52:00,32.7,26.0,0.00,ENE,70,4.9,4.9,76,0.00,,,0.28,VWS V13.01,2013-04-23 00:52:00,
2013-04-22 19:57:00,32.5,25.8,0.00,NNE,12,4.0,6.3,76,0.00,,,0.28,VWS V13.01,2013-04-23 00:57:00,
2013-04-22 20:02:00,32.5,26.1,0.00,NNW,331,6.3,6.3,77,0.00,,,0.28,VWS V13.01,2013-04-23 01:02:00,
2013-04-22 20:07:00,32.5,26.1,0.00,NNW,340,0.0,0.0,77,0.00,,,0.28,VWS V13.01,2013-04-23 01:07:00,
2013-04-22 20:12:00,32.5,26.1,0.00,NE,47,3.6,3.6,77,0.00,,,0.28,VWS V13.01,2013-04-23 01:12:00,
2013-04-22 20:17:00,32.4,26.0,0.00,North,6,2.2,2.2,77,0.00,,,0.28,VWS V13.01,2013-04-23 01:17:00,
2013-04-22 20:22:00,32.4,26.0,0.00,NNE,30,3.1,5.8,77,0.00,,,0.28,VWS V13.01,2013-04-23 01:22:00,
2013-04-22 20:27:00,32.2,26.1,0.00,NNE,17,6.3,6.3,78,0.00,,,0.28,VWS V13.01,2013-04-23 01:27:00,
2013-04-22 20:32:00,32.2,26.1,0.00,NE,56,3.1,5.4,78,0.00,,,0.28,VWS V13.01,2013-04-23 01:32:00,
2013-04-22 20:37:00,32.2,26.1,0.00,ENE,76,2.7,6.3,78,0.00,,,0.28,VWS V13.01,2013-04-23 01:37:00,
2013-04-22 20:42:00,32.2,26.1,0.00,NE,45,4.0,4.0,78,0.00,,,0.28,VWS V13.01,2013-04-23 01:42:00,
2013-04-22 20:47:00,32.2,26.4,0.00,ENE,72,3.6,5.4,79,0.00,,,0.28,VWS V13.01,2013-04-23 01:47:00,
2013-04-22 20:52:00,32.2,26.4,0.00,NNE,18,5.8,6.3,79,0.00,,,0.28,VWS V13.01,2013-04-23 01:52:00,
2013-04-22 20:57:00,32.2,26.4,0.00,NNW,334,4.0,7.2,79,0.00,,,0.28,VWS V13.01,2013-04-23 01:57:00,
2013-04-22 21:02:00,32.2,26.4,0.00,NNW,339,4.0,4.0,79,0.00,,,0.28,VWS V13.01,2013-04-23 02:02:00,
2013-04-22 21:07:00,32.2,26.4,0.00,North,353,5.8,5.8,79,0.00,,,0.28,VWS V13.01,2013-04-23 02:07:00,
2013-04-22 21:12:00,32.2,26.4,0.00,North,2,3.1,4.9,79,0.00,,,0.28,VWS V13.01,2013-04-23 02:12:00,
2013-04-22 21:17:00,32.2,26.4,0.00,North,353,2.2,2.2,79,0.00,,,0.28,VWS V13.01,2013-04-23 02:17:00,
2013-04-22 21:22:00,32.2,26.4,0.00,North,10,5.4,5.4,79,0.00,,,0.28,VWS V13.01,2013-04-23 02:22:00,
2013-04-22 21:27:00,32.2,26.4,0.00,NNW,344,2.7,4.0,79,0.00,,,0.28,VWS V13.01,2013-04-23 02:27:00,
2013-04-22 21:32:00,32.0,26.2,0.00,NNE,13,0.0,0.0,79,0.00,,,0.28,VWS V13.01,2013-04-23 02:32:00,
2013-04-22 21:37:00,32.2,26.4,0.00,NE,47,0.0,2.7,79,0.00,,,0.28,VWS V13.01,2013-04-23 02:37:00,
2013-04-22 21:42:00,32.2,26.4,0.00,NE,38,0.0,3.1,79,0.00,,,0.28,VWS V13.01,2013-04-23 02:42:00,
2013-04-22 21:47:00,32.0,26.2,0.00,North,353,9.2,9.2,79,0.00,,,0.28,VWS V13.01,2013-04-23 02:47:00,
2013-04-22 21:52:00,32.0,26.2,0.00,North,0,3.6,4.0,79,0.00,,,0.28,VWS V13.01,2013-04-23 02:52:00,
2013-04-22 21:57:00,32.0,26.2,0.00,NNW,348,6.3,6.3,79,0.00,,,0.28,VWS V13.01,2013-04-23 02:57:00,
2013-04-22 22:02:00,31.8,26.1,0.00,NW,321,4.0,5.4,79,0.00,,,0.28,VWS V13.01,2013-04-23 03:02:00,
2013-04-22 22:07:00,31.8,26.1,0.00,NNW,343,3.6,3.6,79,0.00,,,0.28,VWS V13.01,2013-04-23 03:07:00,
2013-04-22 22:12:00,31.8,26.1,0.00,NNW,340,3.1,3.1,79,0.00,,,0.28,VWS V13.01,2013-04-23 03:12:00,
2013-04-22 22:17:00,31.6,25.9,0.00,NNE,16,4.0,4.0,79,0.00,,,0.28,VWS V13.01,2013-04-23 03:17:00,
2013-04-22 22:22:00,31.6,25.9,0.00,ENE,60,3.1,3.1,79,0.00,,,0.28,VWS V13.01,2013-04-23 03:22:00,
2013-04-22 22:27:00,31.6,25.9,0.00,NNE,25,5.8,6.3,79,0.00,,,0.28,VWS V13.01,2013-04-23 03:27:00,
2013-04-22 22:32:00,31.6,25.9,0.00,North,8,8.1,8.1,79,0.00,,,0.28,VWS V13.01,2013-04-23 03:32:00,
2013-04-22 22:37:00,31.6,25.9,0.00,NNW,341,2.7,4.9,79,0.00,,,0.28,VWS V13.01,2013-04-23 03:37:00,
2013-04-22 22:42:00,31.8,26.1,0.00,NNE,33,4.0,7.6,79,0.00,,,0.28,VWS V13.01,2013-04-23 03:42:00,
2013-04-22 22:47:00,31.8,26.1,0.00,North,9,5.4,5.4,79,0.00,,,0.28,VWS V13.01,2013-04-23 03:47:00,
2013-04-22 22:52:00,31.8,26.1,0.00,NNE,12,3.6,4.0,79,0.00,,,0.28,VWS V13.01,2013-04-23 03:52:00,
2013-04-22 22:57:00,31.8,26.1,0.00,North,353,7.2,8.1,79,0.00,,,0.28,VWS V13.01,2013-04-23 03:57:00,
2013-04-22 23:01:00,31.8,26.1,0.00,NE,38,7.6,8.7,79,0.00,,,0.28,VWS V13.01,2013-04-23 04:01:00,
2013-04-22 23:06:00,31.6,25.9,0.00,North,9,3.6,3.6,79,0.00,,,0.28,VWS V13.01,2013-04-23 04:06:00,
2013-04-22 23:11:00,31.6,26.2,0.00,North,4,4.0,5.8,80,0.00,,,0.28,VWS V13.01,2013-04-23 04:11:00,
2013-04-22 23:16:00,31.6,26.2,0.00,NNW,346,2.7,2.7,80,0.00,,,0.28,VWS V13.01,2013-04-23 04:16:00,
2013-04-22 23:21:00,31.6,26.2,0.00,NE,52,5.8,5.8,80,0.00,,,0.28,VWS V13.01,2013-04-23 04:21:00,
2013-04-22 23:26:00,31.6,25.9,0.00,North,2,4.9,4.9,79,0.00,,,0.28,VWS V13.01,2013-04-23 04:26:00,
2013-04-22 23:31:00,31.6,25.9,0.00,North,0,2.2,2.2,79,0.00,,,0.28,VWS V13.01,2013-04-23 04:31:00,
2013-04-22 23:36:00,31.6,26.2,0.00,NNE,22,7.6,7.6,80,0.00,,,0.28,VWS V13.01,2013-04-23 04:36:00,
2013-04-22 23:41:00,31.6,26.2,0.00,NE,44,0.0,0.0,80,0.00,,,0.28,VWS V13.01,2013-04-23 04:41:00,
2013-04-22 23:46:00,31.6,26.2,0.00,NNW,345,2.7,2.7,80,0.00,,,0.28,VWS V13.01,2013-04-23 04:46:00,
2013-04-22 23:51:00,31.5,26.0,0.00,North,10,3.1,3.1,80,0.00,,,0.28,VWS V13.01,2013-04-23 04:51:00,
2013-04-22 23:56:00,31.5,26.0,0.00,North,349,3.6,3.6,80,0.00,,,0.28,VWS V13.01,2013-04-23 04:56:00,